[[{"header":{"parameterUnit":"m.s-1","parameterCategory":1,"la1":30.2991,"la2":30.254,"lo1":-89.0895,"lo2":-89.0444,"dy":0.0017,"dx":0.0017,"nx":28,"ny":28,"refTime":"2024-05-26T09:00:00:Z","depth":0,"parameterNumber":2,"parameterNumberName":"U-component_of_WINDS"},"data":[0,0,0,0,0,0,0,0,0,0,0,0,0,0,0,0,0,0,0,0,0,0,0,0,0,0,0,0,0,0,0,0,0,0,0,0,0,0,0,0,0,0,0,0,0,0,0,0,0,0,0,0,0,0,0,0,0,0,-0.5628,-0.5628,0,-0.5628,-0.5628,-0.5628,-0.5628,-0.5627,-0.5627,-0.5627,-0.5628,-0.5628,-0.5628,0,0,0,0,0,0,0,0,0,0,0,0,0,-0.5626,-0.5626,-0.5628,-0.5628,-0.5628,-0.5628,-0.5628,-0.5628,-0.5628,-0.5627,-0.5627,-0.5627,-0.5628,-0.5628,-0.5628,0,0,0,0,0,0,0,0,0,0,0,0,0,-0.5627,-0.5626,-0.5628,-0.5627,-0.5627,-0.5628,-0.5628,-0.5628,-0.5628,-0.5627,-0.5627,-0.5627,-0.5628,-0.5628,-0.5628,-0.5629,0,0,-0.5628,-0.5628,0,0,0,0,0,0,0,0,-0.5627,-0.5627,-0.5627,-0.5627,-0.5627,-0.5628,-0.5628,-0.5628,-0.5628,-0.5627,-0.5627,-0.5627,-0.5628,-0.5628,-0.5628,-0.5629,-0.5629,-0.5628,-0.5628,-0.5628,-0.5628,0,0,0,0,0,0,0,-0.5626,-0.5627,-0.5628,-0.5627,-0.5627,-0.5627,-0.5627,-0.5628,-0.5628,-0.5627,-0.5627,-0.5627,-0.5628,-0.5628,-0.5628,-0.5629,-0.5628,-0.5628,-0.5628,-0.5628,-0.5631,-0.5631,0,0,0,0,0,0,-0.5626,-0.5627,-0.5628,-0.5628,-0.5627,-0.5627,-0.5627,-0.5628,-0.5628,-0.5628,-0.5628,-0.5627,-0.5628,-0.5628,-0.5628,-0.563,-0.5628,-0.5628,-0.5628,-0.5631,-0.5631,-0.5631,0,0,0,0,0,0,-0.5626,-0.5627,-0.5628,-0.5627,-0.5627,-0.5627,-0.5628,-0.5628,-0.5628,-0.5628,-0.5628,-0.5628,-0.5628,-0.5628,-0.5629,-0.563,-0.5628,-0.5628,-0.5631,-0.5631,-0.5631,-0.5633,0,0,0,0,0,0,-0.5626,-0.5627,-0.5627,-0.5627,-0.5627,-0.5629,-0.5628,-0.5628,-0.5628,-0.5628,-0.5628,-0.5628,-0.5628,-0.5629,-0.5629,-0.563,-0.5628,-0.5631,-0.5631,-0.5631,-0.5632,-0.5633,-0.5633,0,0,0,0,0,-0.5626,-0.5627,-0.5627,-0.5627,-0.5628,-0.5629,-0.5629,-0.5629,-0.5628,-0.5628,-0.5629,-0.5628,-0.5629,-0.5629,-0.5629,-0.563,-0.5631,-0.5631,-0.5631,-0.5632,-0.5633,-0.5633,0,0,0,0,0,0,-0.5627,-0.5627,-0.5627,-0.5628,-0.5628,-0.5628,-0.5629,-0.5629,-0.5629,-0.5629,-0.5629,-0.5629,-0.563,-0.563,-0.5629,-0.5631,-0.563,-0.563,-0.5631,-0.5631,-0.5631,-0.5631,-0.5628,0,0,0,0,0,-0.5627,-0.5627,-0.5628,-0.5628,-0.5629,-0.5629,-0.5629,-0.5629,-0.5629,-0.563,-0.563,-0.563,-0.5631,-0.5631,-0.5631,-0.5633,-0.5633,-0.5633,-0.5633,-0.5634,-0.5634,-0.5635,-0.5635,-0.5632,-0.5632,-0.5632,0,0,-0.5627,-0.5627,-0.5628,-0.5629,-0.5629,-0.563,-0.5629,-0.563,-0.563,-0.563,-0.5631,-0.5631,-0.5631,-0.5632,-0.5633,-0.5632,-0.5635,-0.5634,-0.5634,-0.5634,-0.5635,-0.5635,-0.5636,-0.5632,-0.5632,-0.5632,0,0,-0.5628,-0.5628,-0.5629,-0.563,-0.563,-0.563,-0.5631,-0.5631,-0.5631,-0.5632,-0.5632,-0.5633,-0.5634,-0.5634,-0.5634,-0.5636,-0.5636,-0.5636,-0.5637,-0.5639,-0.5639,-0.5639,-0.564,-0.564,-0.5637,-0.5637,-0.5637,0,-0.5628,-0.5629,-0.5629,-0.563,-0.5631,-0.5631,-0.5632,-0.5632,-0.5633,-0.5633,-0.5633,-0.5634,-0.5634,-0.5636,-0.5637,-0.5637,-0.5637,-0.5636,-0.5639,-0.5639,-0.5639,-0.564,-0.564,-0.5637,-0.5637,-0.5637,-0.5637,0,-0.563,-0.5631,-0.5631,-0.5632,-0.5633,-0.5634,-0.5634,-0.5635,-0.5635,-0.5635,-0.5636,-0.5637,-0.5638,-0.5638,-0.5638,-0.564,-0.5639,-0.5639,-0.5638,-0.564,-0.564,-0.5641,-0.5637,-0.5637,-0.5637,-0.5637,0,0,-0.563,-0.5632,-0.5632,-0.5633,-0.5634,-0.5635,-0.5636,-0.5637,-0.5637,-0.5638,-0.5639,-0.564,-0.564,-0.564,-0.564,-0.5641,-0.5643,-0.5641,-0.5641,-0.5641,-0.5646,-0.5646,-0.5646,-0.5643,-0.5643,-0.5643,-0.5646,0,-0.5632,-0.5634,-0.5634,-0.5636,-0.5637,-0.5637,-0.5638,-0.5639,-0.5639,-0.564,-0.5641,-0.5642,-0.5641,-0.5641,-0.5642,-0.5643,-0.5644,-0.5643,-0.5644,-0.5644,-0.5644,-0.5647,-0.5647,-0.5649,-0.5646,-0.5646,-0.5646,0,-0.5633,-0.5634,-0.5636,-0.5638,-0.5638,-0.5639,-0.564,-0.5641,-0.5642,-0.5642,-0.5643,-0.5643,-0.5645,-0.5644,-0.5646,-0.5645,-0.5646,-0.5646,-0.5646,-0.5646,-0.5645,-0.5647,-0.565,-0.565,-0.5646,-0.5646,-0.5646,0,-0.5634,-0.5636,-0.5637,-0.5638,-0.5639,-0.564,-0.5641,-0.5642,-0.5643,-0.5644,-0.5644,-0.5646,-0.5646,-0.5647,-0.5648,-0.5647,-0.565,-0.5649,-0.565,-0.565,-0.5651,-0.5651,-0.5654,-0.5651,-0.5651,-0.5651,-0.5651,0,-0.5635,-0.5636,-0.5638,-0.5639,-0.564,-0.5641,-0.5642,-0.5643,-0.5644,-0.5645,-0.5645,-0.5647,-0.5647,-0.5648,-0.5649,-0.565,-0.5651,-0.5651,-0.5651,-0.5651,-0.5651,-0.5651,-0.5651,-0.5651,-0.5651,-0.5651,-0.5651,0,-0.5636,-0.5637,-0.5639,-0.564,-0.5641,-0.5642,-0.5643,-0.5644,-0.5645,-0.5646,-0.5647,-0.5648,-0.5649,-0.565,-0.5652,-0.5652,-0.5654,-0.5654,-0.5654,-0.5654,-0.5655,-0.5655,-0.5659,-0.566,-0.5656,-0.5656,-0.5656,0,-0.5637,-0.5638,-0.564,-0.5641,-0.5641,-0.5643,-0.5644,-0.5645,-0.5646,-0.5647,-0.5648,-0.565,-0.5651,-0.5654,-0.5655,-0.5656,-0.5656,-0.5657,-0.5656,-0.5656,-0.5656,-0.5656,-0.5657,-0.5657,-0.5657,-0.5658,-0.5658,0,-0.5638,-0.5639,-0.564,-0.5642,-0.5643,-0.5644,-0.5646,-0.5647,-0.5648,-0.5649,-0.5651,-0.5652,-0.5654,-0.5656,-0.5657,-0.5658,-0.5658,-0.5658,-0.5658,-0.5658,-0.5658,-0.5659,-0.5655,-0.5658,-0.5658,-0.5658,-0.5658,-0.5658,-0.5639,-0.564,-0.5642,-0.5644,-0.5645,-0.5646,-0.5647,-0.5649,-0.565,-0.5652,-0.5652,-0.5654,-0.5656,-0.5658,-0.5659,-0.5661,-0.566,-0.5661,-0.5661,-0.5661,-0.5661,-0.5658,-0.5661,-0.5661,-0.5661,-0.5661,-0.5661,0,-0.5641,-0.5642,-0.5644,-0.5646,-0.5647,-0.5647,-0.5649,-0.565,-0.5652,-0.5654,-0.5655,-0.5657,-0.5659,-0.566,-0.5662,-0.5663,-0.5664,-0.5664,-0.5664,-0.5664,-0.5661,-0.5661,-0.5664,-0.5664,-0.5664,-0.5664,-0.5664,-0.5664,-0.5642,-0.5644,-0.5645,-0.5647,-0.5649,-0.5651,-0.5652,-0.5653,-0.5654,-0.5657,-0.5659,-0.566,-0.5661,-0.5663,-0.5665,-0.5665,-0.5666,-0.5667,-0.5667,-0.5664,-0.5664,-0.5664,-0.5663,-0.5667,-0.5667,-0.5669,-0.5669,-0.5669]},{"header":{"parameterUnit":"m.s-1","parameterCategory":1,"la1":30.2991,"la2":30.254,"lo1":-89.0895,"lo2":-89.0444,"dy":0.0017,"dx":0.0017,"nx":28,"ny":28,"refTime":"2024-05-26T09:00:00:Z","depth":0,"parameterNumber":3,"parameterNumberName":"V-component_of_WINDS"},"data":[0,0,0,0,0,0,0,0,0,0,0,0,0,0,0,0,0,0,0,0,0,0,0,0,0,0,0,0,0,0,0,0,0,0,0,0,0,0,0,0,0,0,0,0,0,0,0,0,0,0,0,0,0,0,0,0,0,0,4.565,4.5651,0,4.5742,4.5743,4.5744,4.5723,4.5722,4.572,4.5718,4.581,4.5814,4.5818,0,0,0,0,0,0,0,0,0,0,0,0,0,4.5456,4.5459,4.565,4.5651,4.5653,4.5742,4.5743,4.5744,4.5724,4.5722,4.5719,4.5718,4.5809,4.5813,4.5818,0,0,0,0,0,0,0,0,0,0,0,0,0,4.5543,4.546,4.565,4.5653,4.5654,4.5742,4.5743,4.5745,4.5724,4.5722,4.5719,4.5717,4.5807,4.5813,4.5819,4.5908,0,0,4.5838,4.584,0,0,0,0,0,0,0,0,4.5538,4.555,4.5652,4.5653,4.5655,4.5719,4.5708,4.5799,4.5725,4.5698,4.5718,4.5715,4.5782,4.579,4.5812,4.5912,4.5916,4.5838,4.5842,4.5844,4.5846,0,0,0,0,0,0,0,4.5532,4.5546,4.5686,4.5653,4.5655,4.5649,4.5659,4.5725,4.5753,4.57,4.5698,4.571,4.5782,4.5807,4.5814,4.5918,4.5838,4.5843,4.5847,4.5849,4.6095,4.6098,0,0,0,0,0,0,4.5525,4.5541,4.5684,4.5689,4.5589,4.5655,4.5666,4.5701,4.5752,4.5757,4.5712,4.5708,4.5797,4.5807,4.5817,4.5925,4.5844,4.585,4.5853,4.6092,4.6096,4.6099,0,0,0,0,0,0,4.5521,4.5538,4.568,4.5615,4.5633,4.5661,4.5701,4.5704,4.5728,4.5761,4.5766,4.5732,4.5796,4.5809,4.5886,4.5928,4.5853,4.5858,4.6089,4.6093,4.6097,4.6141,0,0,0,0,0,0,4.5515,4.5536,4.5571,4.5616,4.5636,4.5748,4.5703,4.5707,4.5739,4.5736,4.5782,4.5787,4.5795,4.5877,4.5892,4.5935,4.5863,4.6085,4.6091,4.6096,4.6136,4.6147,4.6156,0,0,0,0,0,4.5508,4.5579,4.5573,4.559,4.568,4.575,4.5761,4.577,4.5743,4.5778,4.5799,4.5785,4.5921,4.5885,4.5902,4.5947,4.6083,4.6089,4.6096,4.6132,4.6145,4.6155,0,0,0,0,0,0,4.5538,4.5585,4.5579,4.5667,4.5705,4.5746,4.5791,4.5783,4.5829,4.5824,4.5832,4.5842,4.5921,4.5942,4.5901,4.6036,4.5998,4.6008,4.602,4.6032,4.6041,4.6035,4.5868,0,0,0,0,0,4.5555,4.5609,4.5647,4.572,4.574,4.5762,4.5793,4.5796,4.5835,4.5851,4.5878,4.5916,4.5967,4.6001,4.605,4.6139,4.6149,4.6179,4.6188,4.6196,4.6205,4.6253,4.6267,4.612,4.612,4.612,0,0,4.5591,4.5623,4.5656,4.5727,4.5757,4.5812,4.5776,4.5835,4.5875,4.586,4.5934,4.5955,4.5998,4.6082,4.612,4.6102,4.6247,4.6204,4.621,4.6215,4.6261,4.6275,4.6288,4.6125,4.6124,4.6123,0,0,4.5683,4.5713,4.5778,4.5808,4.5854,4.5868,4.5884,4.5927,4.5941,4.6016,4.6005,4.6053,4.6141,4.6172,4.6199,4.6303,4.6293,4.6319,4.6369,4.6417,4.6428,4.6438,4.6475,4.6489,4.6327,4.6328,4.6328,0,4.5721,4.5803,4.5812,4.5872,4.5903,4.5893,4.5958,4.5987,4.6046,4.6068,4.6047,4.6157,4.6185,4.6276,4.6301,4.6324,4.6341,4.6314,4.6426,4.6436,4.6446,4.6481,4.6495,4.6331,4.633,4.633,4.633,0,4.5847,4.5905,4.5951,4.601,4.6046,4.6109,4.6126,4.6162,4.6162,4.6178,4.6254,4.6288,4.6343,4.6365,4.6365,4.6456,4.6443,4.6424,4.6386,4.6463,4.6496,4.651,4.6335,4.6334,4.6333,4.6332,0,0,4.5961,4.6023,4.604,4.6067,4.6116,4.616,4.6222,4.6277,4.6307,4.6349,4.64,4.6475,4.6458,4.6489,4.6492,4.6534,4.6614,4.651,4.6511,4.6528,4.6715,4.6729,4.6745,4.6607,4.661,4.6612,4.6712,0,4.6058,4.6168,4.6177,4.6275,4.6328,4.6318,4.6372,4.6408,4.6425,4.6471,4.6489,4.6542,4.6516,4.6534,4.6575,4.6596,4.6652,4.6589,4.6655,4.6657,4.6644,4.6762,4.6778,4.687,4.6725,4.6727,4.6729,0,4.6186,4.6231,4.6335,4.6377,4.64,4.6448,4.6499,4.6544,4.6584,4.6593,4.6628,4.6626,4.6689,4.6648,4.6734,4.6691,4.6719,4.6733,4.6737,4.6743,4.6698,4.6772,4.69,4.6914,4.6749,4.6748,4.6746,0,4.6258,4.6345,4.6419,4.6441,4.6492,4.6526,4.6549,4.6587,4.6619,4.6664,4.6685,4.6735,4.6763,4.6802,4.6814,4.6783,4.69,4.686,4.6909,4.6909,4.6934,4.6932,4.7068,4.6952,4.6952,4.6951,4.6951,0,4.6365,4.6429,4.6452,4.6497,4.6568,4.6578,4.6647,4.6668,4.6702,4.675,4.6745,4.679,4.6803,4.685,4.686,4.693,4.6942,4.6951,4.6953,4.6952,4.6951,4.697,4.6964,4.6955,4.6954,4.6953,4.6953,0,4.6458,4.6476,4.6555,4.6597,4.6609,4.666,4.6695,4.6738,4.6754,4.6816,4.6831,4.6855,4.6911,4.6927,4.6993,4.7,4.7082,4.7078,4.7069,4.7068,4.7116,4.7111,4.7269,4.729,4.716,4.7161,4.7162,0,4.6525,4.6574,4.6622,4.6654,4.6678,4.673,4.6764,4.6775,4.6809,4.6859,4.6896,4.6951,4.6996,4.7085,4.7109,4.7159,4.7156,4.7208,4.7164,4.7161,4.7157,4.7154,4.7159,4.7216,4.7218,4.7219,4.722,0,4.6643,4.6649,4.6697,4.6749,4.6789,4.683,4.6869,4.6896,4.6912,4.6951,4.7009,4.7043,4.7112,4.7166,4.7218,4.724,4.7233,4.7234,4.7247,4.7247,4.7239,4.7244,4.7091,4.723,4.7229,4.7228,4.7228,4.7227,4.6725,4.6768,4.6808,4.6862,4.6893,4.6929,4.6972,4.6993,4.7041,4.7098,4.7102,4.7164,4.7202,4.7271,4.7296,4.7344,4.7329,4.7349,4.7354,4.7359,4.7363,4.7232,4.7354,4.7354,4.7353,4.7353,4.7353,0,4.6841,4.6867,4.6916,4.6972,4.7014,4.7004,4.7047,4.7083,4.7138,4.7175,4.7219,4.7284,4.7337,4.7365,4.7418,4.7451,4.7449,4.7464,4.7462,4.7467,4.7374,4.7357,4.7465,4.7465,4.7465,4.7465,4.7465,4.7465,4.6907,4.698,4.6991,4.7078,4.7103,4.7164,4.7189,4.7223,4.7252,4.7326,4.737,4.7388,4.7422,4.7476,4.7524,4.7531,4.7551,4.7568,4.7573,4.7485,4.7474,4.7463,4.7447,4.7572,4.7572,4.7662,4.7663,4.7664]}]]